Tracking 23764 objects as of 18-Oct-2021
HD Live streaming from Space Station
objects crossing your sky now

INTELSAT 502

Track INTELSAT 502 now!
INTELSAT 502 is classified as:


NORAD ID: 12089
Int'l Code: 1980-098A
Perigee: 36,140.2 km
Apogee: 36,229.5 km
Inclination: 13.6 °
Period: 1,456.1 minutes
Semi major axis: 42555 km
RCS: 13.5237 m2 (large)
Launch date: December 6, 1980
Source: International Telecommunications Satellite Organization (ITSO)
Launch site: AIR FORCE EASTERN TEST RANGE (AFETR)
aabbcc
Your satellite tracking list
Your tracking list is empty




NASA's NSSDC Master Catalog

Two Line Element Set (TLE):
1 12089U 80098A   21290.93185604 -.00000259  00000-0  00000+0 0  9991
2 12089  13.6453 339.3170 0010492 275.1649  82.1125  0.98892795116868
Source of the keplerian elements: AFSPC